STARLINK-11308, 61246

Orbit data source: Space-Track

STARLINK-11308, 61246 is a payload satellite owned by SpaceX/Seattle (US) in LEO that was launched on Wed, 25 Sep 2024 UTC via an FALCON 9 launch vehicle from the Air Force Western Test Range (AFWTR). Payload-class satellites include a variety of spacecraft equipped with specific instruments for various scientific and technological missions. These include communications satellites like Starlink; space stations such as the ISS; scientific satellites like the Hubble; Earth observation satellites from companies like Planet Labs, Umbra, and HawkEye 360; GPS; miniature CubeSats for education and research; and military/defense satellites.

Loading next visibility...
Identifier
61246, 2024-175D
Orbit
LEO
Last TLE update
22 hours ago
Origin
Manufacturer
SpaceX/Seattle
Mission
Operational Commercial Communications
Bus & Motor
STARLINK V2M, Unknown motor
Mass
730 kg wet, ~700 kg dry
Launch date (UTC)
2024-09-25 (10 months ago)
Launch vehicle
FALCON 9
Launch site
Air Force Western Test Range (AFWTR)
Object type
Payload
Rocket body
Debris
Shape & HBR
Box + 2 Pan, 14.5 m
Radar Cross Section
36.964 m², Large (>1 m²)

Expand to show TLE details & history

TLE from 22 hours ago
0 STARLINK-11308
1 61246U 24175D   25199.04241203  .00000016  00000-0  49861-5 0  9990
2 61246  53.1591 132.9064 0001086  70.7573 289.3563 15.69710579 46516
Epoch: 2025-07-18T01:01Z
TLE epoch observation values (Epoch: 2025-07-18T01:01:04.399Z)
Latitude
0.00004°
Longitude
-178.46145°
Altitude
360.398 km
Speed
7.694 km/s
True Right ascension
08h 51m 37s
True Declination
0° 00' 00"
Sunlit
Object was in daylight at epoch
Visualization orbit readout
Latitude
-48.34523°
Longitude
53.80516°
Altitude
377.024 km
Speed
7.683 km/s
Apparent Right ascension
00h 18m 00s
Apparent Declination
-44° 04' 05"
Sunlit
Object is in full shadow
Visualization observer readout
Local Sidereal Time
12:15:32
Azimuth
186.098° SSW
Elevation
-85.823°
Doppler factor
1
Orbital elements
Apogee altitude
360.718 km
Perigee altitude
359.254 km
Semi-major axis
6,738.123 km
Eccentricity
0.00011
Inclination
53.1591°
RAAN
132.9064°
Arg. of periapsis
70.7573°
True anomaly
289.34456°
Mean anomaly
289.3563°
Eccentric anomaly
289.35043°
Mean motion
3.92405 °/min
Orbital period
91.74 mins
BSTAR
0.0000049861
Loading maneuver chart data...
Loading SW <> Apogee altitude chart data...
Loading historical data...
Loading historical data...
Loading historical data...
Loading historical data...
Loading historical data...
Loading historical data...
Loading historical data...
|